Dickinson, ND

7:44 PM MST on November 22, 2017 (GMT -0700)
Dickinson Municipal

Weather History for KDIK - June, 2013

Change the Weather History Date:

Monday, June 24, 2013

  Actual Average Record
Temperature  
Mean Temperature 67 °F 65 °F  
Max Temperature 82 °F 78 °F 109 °F (1936)
Min Temperature 52 °F 51 °F 33 °F (2004)
Degree Days  
Heating Degree Days 0 3  
Month to date heating degree days 124 122  
Since 1 June heating degree days 124 122  
Since 1 July heating degree days 8554 8562  
Cooling Degree Days 2 3  
Month to date cooling degree days 15 36  
Year to date cooling degree days 24 46  
Since 1 June cooling degree days 15 36  
Growing Degree Days 18 (Base 50)    
Moisture  
Dew Point 60 °F    
Average Humidity 71    
Maximum Humidity 87    
Minimum Humidity 54    
Precipitation  
Precipitation 0.00 in 0.10 in 1.70 in (1938)
Month to date precipitation 2.32 2.57  
Year to date precipitation 9.41 7.68  
Sea Level Pressure  
Sea Level Pressure 29.68 in    
Wind  
Wind Speed 10 mph (SE)    
Max Wind Speed 18 mph    
Max Gust Speed 25 mph    
Visibility 10 miles    
Events      
T = Trace of Precipitation, MM = Missing Value Source: NWS Daily Summary

Daily Weather History Graph

Daily Weather History Graph

Search for Another Location

Airport or City:

Trip Planner

Search our weather history database for the weather conditions in past years. The results will help you decide how hot, cold, wet, or windy it might be!

Date:

Astronomy

Jun. 24, 2013 Rise Set
Actual Time 4:57 AM MDT 8:49 PM MDT
Civil Twilight 4:18 AM MDT 9:29 PM MDT
Nautical Twilight 3:24 AM MDT 10:23 PM MDT
Astronomical Twilight 2:04 AM MDT 11:42 PM MDT
Moon 9:43 PM MDT (6/24) 6:35 AM MDT (6/24)
Length of Visible Light 17h 10m
Length of Day
15h 51m
Full, 97% of the Moon is Illuminated
Jun 24
Full
Jun 29
Last Quarter
Jul 8
New
Jul 15
First Quarter
Jul 22
Full

Hourly Weather History & Observations

Time (MDT) Temp. Heat Index Dew Point Humidity Pressure Visibility Wind Dir Wind Speed Gust Speed Precip Events Conditions
12:56 AM 53.1 °F - 48.9 °F 86% 29.79 in 10.0 mi South 6.9 mph - N/A   Clear
1:56 AM 54.0 °F - 48.9 °F 83% 29.77 in 10.0 mi South 6.9 mph - N/A   Clear
2:56 AM 53.1 °F - 48.9 °F 86% 29.76 in 10.0 mi South 5.8 mph - N/A   Clear
3:56 AM 53.1 °F - 48.0 °F 83% 29.74 in 10.0 mi SSE 6.9 mph - N/A   Clear
4:56 AM 54.0 °F - 48.0 °F 80% 29.75 in 10.0 mi South 8.1 mph - N/A   Clear
5:56 AM 57.9 °F - 51.1 °F 78% 29.74 in 10.0 mi SSE 6.9 mph - N/A   Clear
6:56 AM 63.0 °F - 54.0 °F 72% 29.73 in 10.0 mi SSE 9.2 mph - N/A   Clear
7:56 AM 66.0 °F - 57.0 °F 73% 29.71 in 10.0 mi SSE 11.5 mph - N/A   Clear
8:56 AM 70.0 °F - 60.1 °F 71% 29.70 in 10.0 mi SSE 11.5 mph - N/A   Clear
9:56 AM 73.0 °F - 62.1 °F 68% 29.69 in 10.0 mi SE 8.1 mph - N/A   Clear
10:56 AM 75.0 °F - 64.0 °F 69% 29.69 in 10.0 mi SE 10.4 mph - N/A   Clear
11:56 AM 75.9 °F - 64.9 °F 69% 29.69 in 10.0 mi SE 13.8 mph - N/A   Mostly Cloudy
12:11 PM 77.0 °F - 66.2 °F 69% 29.72 in 10.0 mi ESE 15.0 mph - N/A   Scattered Clouds
12:22 PM 75.2 °F - 64.4 °F 69% 29.71 in 10.0 mi ESE 12.7 mph - N/A   Mostly Cloudy
12:56 PM 77.0 °F - 66.0 °F 69% 29.67 in 10.0 mi SE 11.5 mph - N/A   Mostly Cloudy
1:39 PM 78.8 °F - 66.2 °F 65% 29.69 in 10.0 mi SE 15.0 mph - N/A   Mostly Cloudy
1:56 PM 77.0 °F - 64.9 °F 66% 29.66 in 10.0 mi SE 16.1 mph - N/A   Mostly Cloudy
2:56 PM 79.0 °F - 64.9 °F 62% 29.65 in 10.0 mi SE 10.4 mph - N/A   Mostly Cloudy
3:56 PM 81.0 °F 82.5 °F 64.0 °F 56% 29.64 in 10.0 mi SSE 16.1 mph - N/A   Scattered Clouds
4:56 PM 81.0 °F 82.7 °F 64.9 °F 58% 29.62 in 10.0 mi SSE 10.4 mph - N/A   Clear
5:56 PM 82.0 °F 83.8 °F 64.9 °F 56% 29.61 in 10.0 mi SE 8.1 mph - N/A   Clear
6:56 PM 80.1 °F 81.5 °F 63.0 °F 56% 29.60 in 10.0 mi SE 12.7 mph 19.6 mph N/A   Clear
7:56 PM 75.9 °F - 64.9 °F 69% 29.61 in 10.0 mi ESE 12.7 mph - N/A   Clear
8:56 PM 72.0 °F - 63.0 °F 73% 29.62 in 10.0 mi ESE 11.5 mph - N/A   Clear
9:56 PM 69.1 °F - 62.1 °F 78% 29.62 in 10.0 mi ESE 9.2 mph - N/A   Clear
10:56 PM 66.0 °F - 62.1 °F 87% 29.60 in 10.0 mi East 9.2 mph - N/A   Clear